Regional Weather Roundup
Issued by NWS

Home | Current Version | Previous Version | Text Only | Print | Product List | Glossary On
Versions: 1 2 3 4 5 6 7 8 9 10 11 12 13 14 15 16 17 18 19 20 21 22 23 24 25 26 27 28 29 30 31 32 33 34 35 36 37 38 39 40 41 42 43 44 45 46 47 48 49 50
000
ASUS43 KBIS 240010
RWRND

NORTH DAKOTA REGIONAL WEATHER ROUNDUP
NATIONAL WEATHER SERVICE BISMARCK ND
600 PM CST TUE JAN 23 2018

NOTE: "FAIR" INDICATES FEW OR NO CLOUDS BELOW 12,000 FEET WITH NO
SIGNIFICANT WEATHER AND/OR OBSTRUCTIONS TO VISIBILITY.


NDZ001>003-009>011-017-240100-
NORTHWEST NORTH DAKOTA

CITY           SKY/WX    TMP DP  RH WIND       PRES   REMARKS
WILLISTON      CLEAR     24  18  77 SW7       30.11S WCI  16
6HR MIN TEMP:  23; 6HR MAX TEMP:  29;

MINOT          CLOUDY    23  19  85 SW6       30.11S WCI  16
MINOT AFB      CLOUDY    22  20  89 W6        30.10S WCI  15
$$

NDZ018>021-031>035-040>046-240100-
SOUTHWEST NORTH DAKOTA

CITY           SKY/WX    TMP DP  RH WIND       PRES   REMARKS
BISMARCK       CLEAR     26  20  77 NE7       30.14R WCI  18
6HR MIN TEMP:  25; 6HR MAX TEMP:  34;

DICKINSON      CLEAR     28  21  75 W13       30.09R WCI  17
GARRISON         N/A     16  14  92 CALM      30.12R
6HR MIN TEMP:  16; 6HR MAX TEMP:  26;

HETTINGER ARPT CLEAR     29  20  69 W10       30.14R WCI  20
$$

NDZ004>008-012>016-024-026-027-054-240100-
NORTHEAST NORTH DAKOTA

CITY           SKY/WX    TMP DP  RH WIND       PRES   REMARKS
GRAND FORKS    CLOUDY    23  21  92 S7        30.12R WCI  15
GRND FRKS AFB  CLOUDY    23  18  82 NW12      30.12R WCI  11
DEVILS LAKE    CLOUDY    22  19  89 W9        30.11R WCI  12
$$

NDZ022-023-025-028>030-036>039-047>053-240100-
SOUTHEAST NORTH DAKOTA

CITY           SKY/WX    TMP DP  RH WIND       PRES   REMARKS
FARGO          CLOUDY    24  21  88 S5        30.13S WCI  18
6HR MIN TEMP:  21; 6HR MAX TEMP:  24; 6HR PCP: TRACE;

JAMESTOWN      CLOUDY    19  16  88 NW16      30.12R WCI   4
$$




USA.gov is the U.S. government's official web portal to all federal, state and local government web resources and services.